Weather History for Roatan, Honduras

Change the Weather History Date:

Thursday, March 20, 2014

  Actual Average Record
Temperature  
Mean Temperature 82 °F -  
Max Temperature 89 °F 84 °F - ()
Min Temperature 75 °F 75 °F - ()
Cooling Degree Days 17    
Growing Degree Days 32 (Base 50)    
Moisture  
Dew Point 72 °F    
Average Humidity 64    
Maximum Humidity 74    
Minimum Humidity 55    
Precipitation  
Precipitation 0.00 in - - ()
Sea Level Pressure  
Sea Level Pressure 29.94 in    
Wind  
Wind Speed 12 mph ()    
Max Wind Speed 18 mph    
Max Gust Speed -    
Visibility 6.8 miles    
Events      
T = Trace of Precipitation, MM = Missing Value Source: Averaged Metar Reports

Daily Weather History Graph

Daily Weather History Graph

Search for Another Location

Airport:

Trip Planner

Search our weather history database for the weather conditions in past years. The results will help you decide how hot, cold, wet, or windy it might be!

Date:

Astronomy

Mar. 20, 2014 Rise Set
Actual Time 5:50 AM CST 5:57 PM CST
Civil Twilight 5:28 AM CST 6:18 PM CST
Nautical Twilight 5:03 AM CST 6:43 PM CST
Astronomical Twilight 4:38 AM CST 7:08 PM CST
Moon 9:38 PM CST (3/20) 8:31 AM CST (3/20)
Length of Visible Light 12h 49m
Length of Day
12h 06m
Waning Gibbous, 83% of the Moon is Illuminated
Mar 20
Waning Gibbous
Mar 23
Last Quarter
Mar 30
New
Apr 7
First Quarter
Apr 15
Full

Hourly Weather History & Observations

Time (CST) Temp. Heat Index Dew Point Humidity Pressure Visibility Wind Dir Wind Speed Gust Speed Precip Events Conditions
6:00 AM 78.8 °F - 68.0 °F 69% 29.92 in 6.2 mi NE 9.2 mph - N/A   Mostly Cloudy
7:00 AM 80.6 °F 84.6 °F 71.6 °F 74% 29.95 in 6.2 mi ENE 11.5 mph - N/A   Scattered Clouds
8:00 AM 84.2 °F 89.6 °F 71.6 °F 66% 29.95 in 6.2 mi East 18.4 mph - N/A   Partly Cloudy
9:00 AM 85 °F - 72 °F 57% 29.97 in 9 mi East 16.1 mph - -   Haze
9:00 AM 86.0 °F 91.8 °F 71.6 °F 62% 29.98 in 6.2 mi East 16.1 mph - N/A   Partly Cloudy
10:00 AM 86.0 °F 93.4 °F 73.4 °F 66% 29.98 in 6.2 mi East 17.3 mph - N/A   Partly Cloudy
11:00 AM 87.8 °F 93.8 °F 71.6 °F 58% 29.98 in 6.2 mi East 16.1 mph - N/A   Partly Cloudy
12:00 PM 87 °F - 73 °F 55% 29.98 in 9 mi East 15.0 mph - -   Haze
12:00 PM 86.0 °F 93.4 °F 73.4 °F 66% 29.98 in 6.2 mi East 15.0 mph - N/A   Scattered Clouds
1:00 PM 86.0 °F 91.8 °F 71.6 °F 62% 29.95 in 6.2 mi East 15.0 mph - N/A   Mostly Cloudy
2:00 PM 86.0 °F 91.8 °F 71.6 °F 62% 29.92 in 6.2 mi East 13.8 mph - N/A   Scattered Clouds
3:00 PM 85 °F - 72 °F 56% 29.92 in 9 mi East 17.3 mph - -   Haze
3:00 PM 86.0 °F 91.8 °F 71.6 °F 62% 29.92 in 6.2 mi East 17.3 mph - N/A   Mostly Cloudy
4:00 PM 84.2 °F 88.4 °F 69.8 °F 62% 29.89 in 6.2 mi ENE 11.5 mph - N/A   Mostly Cloudy
5:00 PM 84.2 °F 89.6 °F 71.6 °F 66% 29.92 in 6.2 mi East 17.3 mph - N/A   Scattered Clouds
6:00 PM 82 °F - 71 °F 62% 29.93 in 9 mi NE 9.2 mph - -   Haze
6:00 PM 82.4 °F 87.2 °F 71.6 °F 70% 29.92 in 6.2 mi East 11.5 mph - N/A   Scattered Clouds
7:00 PM 80.6 °F 84.6 °F 71.6 °F 74% 29.92 in - NE 11.5 mph - N/A   Clear
8:00 PM 80.6 °F 84.6 °F 71.6 °F 74% 29.95 in 6.2 mi ENE 11.5 mph - N/A   Partly Cloudy